When you browse on this site, cookies collect data to enhance your experience and personalize the content and advertising you see.
Visit our Privacy Policy to learn more. By continuing to use the site, you agree to this use of cookies and data.
  • In Czech Republic
  • List of Countries
  • For 7 days
  • Water Temperature
  • Satellite Maps
  • Weather Map
  • Weather Widgets
  • user-avatar
    Login

    Hourly Weather Dhamar

    Today, 21 January, Monday

    Time Temperature Precipitation Wind Pressure Humidity
    00:00 +14°C° 0 mm 0 mps 585 mmHg 73%
    01:00 +14°C° 0 mm 0 mps 585 mmHg 74%
    02:00 +13°C° 0 mm 0 mps 585 mmHg 75%
    03:00 +13°C° 0 mm 0 mps 584 mmHg 75%
    04:00 +13°C° 0 mm 0 mps 584 mmHg 77%
    05:00 +12°C° 0 mm 0 mps 584 mmHg 79%
    06:00 +12°C° 0 mm 0 mps 584 mmHg 81%
    07:00 +13°C° 0 mm 0 mps 585 mmHg 76%
    08:00 +15°C° 0 mm 1 mps 586 mmHg 71%
    09:00 +16°C° 0 mm 1 mps 587 mmHg 65%
    10:00 +18°C° 0 mm 2 mps 587 mmHg 59%
    11:00 +19°C° 0 mm 2 mps 587 mmHg 52%
    12:00 +20°C° 0 mm 3 mps 588 mmHg 45%
    13:00 +20°C° 0 mm 3 mps 587 mmHg 47%
    14:00 +20°C° 0 mm 4 mps 587 mmHg 49%
    15:00 +20°C° 0 mm 4 mps 586 mmHg 50%
    16:00 +19°C° 0 mm 4 mps 586 mmHg 56%
    17:00 +18°C° 0 mm 3 mps 585 mmHg 61%
    18:00 +18°C° 0 mm 3 mps 585 mmHg 66%
    19:00 +17°C° 0 mm 2 mps 585 mmHg 69%
    20:00 +17°C° 0 mm 2 mps 585 mmHg 71%
    21:00 +16°C° 0 mm 1 mps 585 mmHg 73%
    22:00 +16°C° 0 mm 1 mps 585 mmHg 74%
    23:00 +16°C° 0 mm 1 mps 585 mmHg 74%

    Tomorrow, 22 January, Tuesday

    Time Temperature Precipitation Wind Pressure Humidity
    00:00 +15°C° 0 mm 0 mps 585 mmHg 75%
    01:00 +14°C° 0 mm 0 mps 584 mmHg 76%
    02:00 +14°C° 0 mm 0 mps 584 mmHg 78%
    03:00 +13°C° 0 mm 0 mps 583 mmHg 80%
    04:00 +13°C° 0 mm 0 mps 583 mmHg 82%
    05:00 +12°C° 0 mm 0 mps 583 mmHg 84%
    06:00 +11°C° 0 mm 0 mps 583 mmHg 85%
    07:00 +13°C° 0 mm 0 mps 584 mmHg 75%
    08:00 +15°C° 0 mm 0 mps 585 mmHg 64%
    09:00 +16°C° 0 mm 0 mps 586 mmHg 54%
    10:00 +20°C° 0 mm 1 mps 587 mmHg 45%
    11:00 +20°C° 0 mm 2 mps 587 mmHg 36%
    12:00 +22°C° 0 mm 3 mps 587 mmHg 27%
    13:00 +22°C° 0 mm 3 mps 587 mmHg 30%
    14:00 +22°C° 0 mm 4 mps 586 mmHg 33%
    15:00 +22°C° 0 mm 4 mps 586 mmHg 36%
    16:00 +21°C° 0 mm 4 mps 585 mmHg 45%
    17:00 +19°C° 0 mm 4 mps 585 mmHg 55%
    18:00 +18°C° 0 mm 3 mps 584 mmHg 64%
    19:00 +17°C° 0 mm 2 mps 584 mmHg 68%
    20:00 +17°C° 0 mm 2 mps 585 mmHg 72%
    21:00 +18°C° 0 mm 1 mps 585 mmHg 75%
    22:00 +16°C° 0 mm 1 mps 585 mmHg 76%
    23:00 +15°C° 0 mm 0 mps 584 mmHg 78%

    Day after tomorrow, 23 January, Wednesday

    Time Temperature Precipitation Wind Pressure Humidity
    00:00 +15°C° 0 mm 0 mps 584 mmHg 79%
    01:00 +14°C° 0 mm 0 mps 583 mmHg 81%
    02:00 +14°C° 0 mm 0 mps 583 mmHg 83%
    03:00 +13°C° 0 mm 0 mps 582 mmHg 85%
    04:00 +13°C° 0 mm 0 mps 582 mmHg 86%
    05:00 +12°C° 0 mm 0 mps 582 mmHg 87%
    06:00 +12°C° 0 mm 0 mps 582 mmHg 88%
    07:00 +13°C° 0 mm 0 mps 583 mmHg 76%
    08:00 +16°C° 0 mm 1 mps 584 mmHg 64%
    09:00 +18°C° 0 mm 1 mps 586 mmHg 53%
    10:00 +20°C° 0 mm 1 mps 586 mmHg 46%
    11:00 +20°C° 0 mm 2 mps 586 mmHg 39%
    12:00 +21°C° 0 mm 3 mps 587 mmHg 33%
    13:00 +22°C° 0 mm 3 mps 586 mmHg 35%
    14:00 +22°C° 0 mm 4 mps 586 mmHg 36%
    15:00 +22°C° 0 mm 4 mps 585 mmHg 38%
    16:00 +21°C° 0 mm 4 mps 585 mmHg 46%
    17:00 +20°C° 0 mm 3 mps 584 mmHg 54%
    18:00 +18°C° 0 mm 3 mps 584 mmHg 62%
    19:00 +18°C° 0 mm 2 mps 585 mmHg 67%
    20:00 +17°C° 0 mm 2 mps 585 mmHg 71%
    21:00 +18°C° 0 mm 1 mps 585 mmHg 75%
    22:00 +16°C° 0 mm 1 mps 585 mmHg 76%
    23:00 +16°C° 0 mm 1 mps 585 mmHg 77%

    24 January, Thursday

    Time Temperature Precipitation Wind Pressure Humidity
    00:00 +16°C° 0 mm 1 mps 585 mmHg 78%
    01:00 +15°C° 0 mm 1 mps 584 mmHg 80%
    02:00 +15°C° 0 mm 1 mps 584 mmHg 82%
    03:00 +15°C° 0 mm 1 mps 583 mmHg 84%
    04:00 +13°C° 0 mm 0 mps 583 mmHg 85%
    05:00 +13°C° 0 mm 0 mps 583 mmHg 86%
    06:00 +12°C° 0 mm 0 mps 583 mmHg 87%
    07:00 +14°C° 0 mm 0 mps 585 mmHg 77%
    08:00 +15°C° 0 mm 0 mps 586 mmHg 66%
    09:00 +19°C° 0 mm 1 mps 587 mmHg 56%
    10:00 +20°C° 0 mm 1 mps 587 mmHg 47%
    11:00 +21°C° 0 mm 2 mps 587 mmHg 38%
    12:00 +22°C° 0 mm 3 mps 588 mmHg 29%
    13:00 +22°C° 0 mm 3 mps 587 mmHg 29%
    14:00 +23°C° 0 mm 4 mps 587 mmHg 29%
    15:00 +23°C° 0 mm 4 mps 586 mmHg 29%
    16:00 +22°C° 0 mm 4 mps 586 mmHg 35%
    17:00 +21°C° 0 mm 3 mps 586 mmHg 42%
    18:00 +20°C° 0 mm 3 mps 586 mmHg 48%
    19:00 +19°C° 0 mm 2 mps 586 mmHg 53%
    20:00 +19°C° 0 mm 2 mps 586 mmHg 57%
    21:00 +19°C° 0 mm 1 mps 586 mmHg 62%
    22:00 +19°C° 0 mm 1 mps 586 mmHg 61%
    23:00 +18°C° 0 mm 2 mps 586 mmHg 60%

    25 January, Friday

    Time Temperature Precipitation Wind Pressure Humidity
    00:00 +17°C° 0 mm 2 mps 586 mmHg 59%
    01:00 +18°C° 0 mm 1 mps 585 mmHg 61%
    02:00 +16°C° 0 mm 1 mps 585 mmHg 63%
    03:00 +16°C° 0 mm 1 mps 584 mmHg 64%
    04:00 +15°C° 0 mm 1 mps 584 mmHg 67%
    05:00 +14°C° 0 mm 0 mps 584 mmHg 70%
    06:00 +13°C° 0 mm 0 mps 584 mmHg 73%
    07:00 +14°C° 0 mm 0 mps 586 mmHg 66%
    08:00 +16°C° 0 mm 0 mps 587 mmHg 59%
    09:00 +19°C° 0 mm 1 mps 588 mmHg 51%
    10:00 +20°C° 0 mm 1 mps 588 mmHg 45%
    11:00 +22°C° 0 mm 1 mps 588 mmHg 40%
    12:00 +23°C° 0 mm 1 mps 588 mmHg 34%
    13:00 +23°C° 0 mm 2 mps 588 mmHg 33%
    14:00 +24°C° 0 mm 2 mps 587 mmHg 33%
    15:00 +24°C° 0 mm 3 mps 587 mmHg 33%
    16:00 +22°C° 0 mm 3 mps 586 mmHg 39%
    17:00 +21°C° 0 mm 3 mps 586 mmHg 45%
    18:00 +20°C° 0 mm 3 mps 586 mmHg 52%
    19:00 +19°C° 0 mm 2 mps 586 mmHg 55%
    20:00 +18°C° 0 mm 2 mps 586 mmHg 58%
    21:00 +18°C° 0 mm 1 mps 586 mmHg 62%
    22:00 +18°C° 0 mm 1 mps 586 mmHg 60%
    23:00 +18°C° 0 mm 1 mps 586 mmHg 58%

    26 January, Saturday

    Time Temperature Precipitation Wind Pressure Humidity
    00:00 +18°C° 0 mm 1 mps 586 mmHg 57%
    01:00 +16°C° 0 mm 1 mps 585 mmHg 56%
    02:00 +16°C° 0 mm 1 mps 585 mmHg 55%
    03:00 +15°C° 0 mm 1 mps 585 mmHg 55%
    04:00 +15°C° 0 mm 1 mps 585 mmHg 54%
    05:00 +15°C° 0 mm 1 mps 585 mmHg 54%
    06:00 +14°C° 0 mm 1 mps 585 mmHg 53%
    07:00 +15°C° 0 mm 1 mps 585 mmHg 48%
    08:00 +18°C° 0 mm 1 mps 586 mmHg 43%
    09:00 +19°C° 0 mm 1 mps 587 mmHg 38%
    10:00 +20°C° 0 mm 1 mps 587 mmHg 34%
    11:00 +21°C° 0 mm 2 mps 588 mmHg 30%
    12:00 +23°C° 0 mm 2 mps 588 mmHg 26%
    13:00 +23°C° 0 mm 2 mps 587 mmHg 26%
    14:00 +24°C° 0 mm 2 mps 587 mmHg 25%
    15:00 +24°C° 0 mm 3 mps 587 mmHg 25%
    16:00 +22°C° 0 mm 3 mps 587 mmHg 29%
    17:00 +21°C° 0 mm 3 mps 586 mmHg 34%
    18:00 +20°C° 0 mm 3 mps 586 mmHg 38%
    19:00 +19°C° 0 mm 3 mps 586 mmHg 40%
    20:00 +18°C° 0 mm 3 mps 587 mmHg 41%
    21:00 +18°C° 0 mm 3 mps 587 mmHg 42%
    22:00 +17°C° 0 mm 2 mps 586 mmHg 41%
    23:00 +17°C° 0 mm 2 mps 586 mmHg 40%
    Show more